Find Starlink 32564

NORAD ID: 61924 Int'l Des: 2024-207 Owner: SPXS Country: US Constellation: starlink operational
LEOCIRCULAR

Live Position

Loading 3D Globe...

About Starlink 32564

Description loading...

Upcoming Passes

Passes for default location (London). Set your location on the main map for personalized predictions.

Altitude History

Loading altitude history...

Two-Line Element Set

1 61924U 24207N 26104.36355248 .00008679 00000-0 32446-3 0 9998
2 61924 43.0013 84.0978 0000898 282.9910 77.0841 15.27586038 80131
Epoch: Apr 14, 2026 • Age: 11 hours

Current Status

Altitude 482.2 km
Velocity 7.63 km/s
Sub-Earth Point 16.12°N, 40.77°W
Launch Date Nov 11, 2024
Age 1.4 years
Type internet

Technical Details

Classification Payload
Mass 730.00 kg
Dry Mass 700.00 kg
Total Mass 730.00 kg
Length 0.30 m
Diameter 4.10 m
Span 29.00 m
Shape Box + pan
Manufacturer SPXS
Bus Type Starlink V2M
Phase Status In Orbit
Owner/State SPXS/US

Most Searched